Lapse_Rate
7.3 6.6 6.6 6.8 6.7 7.9 7.2 5.4 5.8 6.5 6.9 7.0 4.4 5.2 7.9 6.5 5.8 5.3 5.9 6.7 7.3 7.5 7.6 8.0 8.4 7.9 8.5 8.6 8.0 8.1 7.8 7.5 7.6 6.3 5.9 5.8 6.1 7.0
6.4 5.3 5.9 4.3 2.4 8.0 7.2 5.2 6.8 6.1 7.0 7.2 5.9 4.6 6.9 7.0 5.7 5.5 5.9 6.5 7.5 7.4 7.9 7.3 7.9 7.7 7.6 8.3 7.8 7.7 7.6 7.5 6.2 5.2 5.1 5.4 5.5 5.7
7.7 7.2 7.5 6.6 3.3 7.5 7.4 5.4 7.0 7.2 6.7 6.8 4.8 6.1 5.8 6.7 5.1 5.2 5.4 5.3 5.8 7.5 7.6 7.0 7.3 7.7 8.0 8.7 8.4 8.2 8.4 7.6 5.7 5.1 5.2 5.2 5.3 5.3
7.1 7.9 7.4 7.6 4.8 7.3 7.5 6.3 7.4 7.4 6.7 4.2 5.7 5.6 6.7 6.4 4.8 5.1 4.8 5.6 5.9 5.8 7.5 7.0 7.4 7.4 7.4 9.2 8.4 7.8 8.0 7.4 5.6 5.3 5.2 5.2 5.1 5.2
6.7 7.6 5.4 4.5 2.5 6.8 7.3 7.1 7.3 7.6 7.1 4.7 4.7 5.3 4.8 6.0 5.3 5.8 5.0 5.0 5.4 5.8 5.8 7.6 7.9 7.9 7.8 8.1 7.7 7.3 7.4 7.3 6.1 5.4 5.3 5.1 5.0 5.1
7.9 7.9 7.8 7.3 5.4 7.1 7.1 6.9 7.7 7.5 6.9 4.9 4.5 4.6 4.4 5.2 6.0 5.9 6.2 5.6 5.0 5.8 5.7 6.0 6.8 7.8 7.8 7.2 7.0 6.8 6.6 6.9 6.3 5.8 5.4 5.0 5.0 5.0
7.1 8.3 6.6 5.7 4.9 6.6 6.9 6.8 6.7 6.9 6.6 5.4 4.6 4.6 4.2 5.3 6.6 5.5 5.6 6.3 6.1 5.6 4.6 5.8 5.6 6.4 6.4 6.7 6.3 6.9 6.5 6.4 6.3 6.1 5.5 5.1 4.9 4.8
7.9 7.1 5.3 3.9 4.5 4.6 5.0 4.6 4.9 5.8 6.2 5.8 5.0 4.6 4.4 4.2 4.7 4.3 4.7 6.0 6.1 6.0 5.7 5.0 5.9 6.4 6.6 5.1 5.5 4.9 5.2 6.2 5.8 5.3 4.8 4.9 4.8 4.8
7.5 6.1 6.4 6.5 4.3 4.9 3.6 3.1 2.5 3.4 4.1 5.3 5.1 4.9 3.9 3.8 3.7 4.1 4.3 3.7 4.4 2.7 5.2 5.8 5.8 6.0 5.6 5.3 4.6 3.7 4.0 4.1 4.8 5.0 4.6 4.3 4.2 4.2
3.4 4.4 3.8 6.4 4.8 4.3 4.8 4.5 4.7 4.8 5.4 6.0 6.0 5.2 4.5 3.7 3.4 3.3 3.2 3.2 3.1 2.6 4.3 4.0 4.1 3.8 5.1 4.2 3.9 3.4 2.4 2.7 3.0 3.2 3.2 3.0 3.0 2.9
4.6 5.2 5.4 4.3 3.6 3.4 4.6 5.1 5.4 5.4 3.4 3.8 4.5 3.2 2.4 1.8 2.9 3.6 3.6 4.2 4.5 4.5 4.3 4.1 3.4 3.9 4.3 3.3 3.1 2.5 1.7 1.8 2.1 2.2 2.2 2.2 2.2 2.2
-1.5 -1.4 -1.4 0.9 1.4 2.9 5.6 5.3 5.2 5.5 5.3 4.4 4.1 3.5 2.8 2.5 0.8 4.2 3.3 3.6 4.1 4.6 3.6 4.5 2.6 3.2 4.8 3.9 3.5 3.1 1.2 1.3 1.5 1.2 1.6 1.3 1.2 1.9
-1.9 -1.7 -1.2 -0.5 1.4 2.3 3.6 5.1 5.0 4.7 3.8 4.9 5.6 5.4 5.4 4.9 4.3 4.9 4.6 4.7 4.0 3.4 1.8 4.0 3.1 2.7 3.1 3.0 3.0 2.7 0.5 1.4 0.6 0.6 0.3 0.6 0.9 1.4
-1.0 -2.0 -2.5 -2.2 -1.3 -0.4 1.0 0.9 1.6 3.3 4.7 4.5 5.3 6.0 6.1 5.5 5.1 5.0 4.8 5.0 5.2 5.0 2.4 4.5 1.6 4.0 4.2 2.9 3.4 1.7 0.9 1.4 1.5 0.5 0.9 0.4 -0.4 -0.3
0.7 1.2 -2.0 -3.7 -3.7 -3.7 -2.3 -0.9 -0.7 1.8 4.7 5.0 5.0 5.3 5.3 6.2 5.2 5.0 4.9 4.7 5.1 4.6 3.9 4.9 4.5 3.6 4.1 4.3 2.4 1.4 2.0 1.6 1.1 1.0 -0.5 0.5 -0.4 -0.6
0.1 -0.9 -1.2 -2.2 -3.1 -3.7 -5.1 -4.5 -2.9 -2.2 -1.6 -0.0 3.5 4.5 4.8 4.9 5.3 4.8 5.3 5.3 5.4 5.4 4.2 4.8 5.4 4.2 4.2 4.3 3.8 1.8 1.8 2.2 1.7 1.6 0.9 0.3 0.5 0.5
-0.4 -1.0 -1.5 -1.4 -2.3 -1.7 -2.5 -3.3 -3.9 -4.2 -3.8 -3.3 -2.0 -1.0 -0.0 1.9 4.7 4.9 5.2 5.1 5.7 5.8 4.8 3.0 4.7 4.9 5.3 4.6 4.2 4.2 3.1 2.6 1.9 2.3 2.0 1.5 1.0 1.0
-0.8 0.3 0.9 0.3 -0.2 1.4 0.2 -0.6 -0.9 -2.3 -3.0 -3.8 -3.3 -3.3 -2.6 -1.7 -0.9 -1.1 0.1 4.5 4.9 5.3 5.5 4.5 2.6 1.4 0.8 3.2 4.6 4.7 4.5 4.6 3.7 2.7 1.5 2.7 2.4 1.8
1.1 2.6 2.6 2.8 2.1 2.0 2.7 1.8 1.8 0.9 0.0 -1.7 -2.5 -2.8 -2.8 -2.7 -1.7 -1.9 -1.4 -0.5 0.5 3.7 4.9 4.8 4.0 4.7 5.2 5.7 4.2 3.4 5.2 4.3 4.3 2.3 2.6 3.4 3.9 2.6
2.8 3.3 3.4 3.3 3.5 2.9 2.7 3.0 2.1 2.3 0.9 0.8 -0.6 -1.3 -1.7 -1.3 -0.9 -1.9 -1.1 -1.1 -1.3 -1.5 -1.4 -1.1 2.1 4.2 4.7 5.0 3.8 2.8 0.4 5.6 4.5 4.5 3.7 1.0 -1.4 -3.1
4.3 4.0 4.1 3.8 3.7 3.5 3.6 3.9 3.7 3.5 3.0 2.2 1.3 1.1 0.1 -0.5 -0.2 -0.6 -0.4 0.5 -0.2 -0.5 -0.9 -1.1 -0.9 -1.0 -1.9 -1.5 0.7 -0.0 -1.3 -2.7 0.4 4.4 2.3 1.6 0.6 -1.2
3.7 4.3 4.5 4.6 4.1 3.9 3.7 3.7 3.4 3.3 2.6 2.3 2.5 2.5 2.4 2.1 1.7 1.6 1.5 1.0 0.8 0.3 0.3 -0.3 -0.8 -0.6 -0.6 0.5 2.3 3.3 -0.5 -3.5 -3.2 -3.2 -3.0 -2.0 -0.9 1.1
4.5 4.3 3.6 3.8 3.8 4.0 4.3 4.4 4.0 4.2 3.7 3.0 2.5 2.7 2.3 2.2 2.7 2.8 2.7 2.3 2.1 1.9 1.2 0.7 0.3 0.7 1.1 0.8 1.1 0.6 0.5 -0.9 -2.3 -2.6 -3.5 -3.3 -3.0 -2.6
Wind_Speed
16 17 17 19 17 16 14 16 15 10 13 9 4 6 14 20 21 22 20 29 30 26 22 22 25 24 22 21 21 23 20 21 18 16 16 15 13 13
14 19 20 16 20 16 15 16 14 12 12 12 9 6 12 16 24 23 21 31 33 29 26 23 25 25 24 21 22 23 21 21 19 19 18 16 14 11
19 19 21 24 18 17 15 15 14 13 12 13 13 10 12 13 14 23 22 20 24 33 30 28 25 27 29 25 24 25 24 22 22 20 20 18 17 15
23 22 23 18 23 22 17 20 17 15 11 19 14 11 15 16 13 14 13 23 21 29 33 31 27 27 28 29 29 27 26 25 24 25 24 21 20 18
21 22 22 21 22 19 19 18 16 14 11 10 11 11 13 12 10 12 12 12 19 24 32 34 31 29 30 31 31 30 29 29 30 28 27 25 24 22
23 25 25 24 31 26 21 21 17 16 13 11 12 13 12 13 12 12 10 8 10 16 24 25 28 32 31 31 34 33 33 33 33 32 31 29 27 26
25 24 23 30 37 27 17 19 19 15 13 12 12 11 11 11 14 10 11 9 9 9 8 11 14 18 23 29 27 36 36 37 36 35 34 33 32 30
23 20 21 26 33 35 30 26 24 18 16 11 12 13 16 14 14 12 11 9 7 10 10 9 15 11 17 22 28 31 36 38 37 36 37 36 35 34
18 18 22 19 26 23 25 26 22 20 21 20 19 17 17 18 16 15 14 14 11 8 12 10 9 12 17 23 34 35 35 37 37 37 37 37 37 36
17 25 28 24 23 24 22 21 21 19 19 15 18 18 17 20 20 18 19 17 8 5 13 10 11 12 11 20 29 37 38 38 38 38 38 37 37 37
5 19 19 21 26 28 22 21 20 19 14 14 17 18 16 22 20 11 10 10 7 7 10 6 6 10 10 11 21 36 37 38 37 38 38 37 37 37
15 15 28 9 22 27 22 19 16 15 15 12 5 13 16 18 20 17 14 13 10 5 7 10 5 5 3 8 10 17 21 33 37 37 37 37 35 27
13 12 13 26 7 15 11 15 15 12 9 13 12 9 11 13 13 13 14 13 12 4 7 12 7 5 4 2 7 10 10 13 21 25 32 34 34 33
13 11 14 26 29 22 10 13 8 12 9 10 11 11 10 11 12 13 13 12 11 12 10 17 5 10 10 4 4 3 5 10 13 10 16 23 30 32
13 19 27 31 27 22 27 20 16 4 3 8 10 11 10 9 10 11 12 12 10 8 12 15 10 8 9 8 5 4 4 7 8 9 8 10 10 14
19 16 23 25 28 21 17 16 9 9 8 6 1 3 7 7 9 9 11 10 8 8 7 18 14 9 6 8 8 4 5 5 7 9 9 8 12 17
15 13 14 14 15 13 12 13 11 10 10 8 6 6 6 4 3 6 8 8 10 11 8 4 10 11 9 8 7 8 5 5 5 8 8 9 7 10
15 14 13 14 14 11 12 11 11 14 9 9 8 7 7 6 5 4 4 4 9 10 10 9 6 2 2 6 11 5 8 9 8 10 5 8 9 9
13 12 13 11 11 11 10 10 10 10 10 9 8 8 7 7 6 6 6 5 4 3 8 8 9 11 13 14 4 21 11 9 8 4 8 9 11 10
12 12 12 11 11 11 10 10 10 10 10 9 10 8 8 7 7 7 7 5 4 3 3 3 2 9 12 12 8 7 19 12 7 10 9 3 2 5
11 11 10 10 10 9 9 9 10 9 9 8 9 9 9 8 8 7 7 11 9 5 5 5 4 13 4 3 0 1 3 8 6 11 6 5 4 2
9 10 9 9 9 9 9 9 9 11 10 9 9 8 8 7 7 7 6 6 6 5 5 6 6 5 2 2 3 5 2 0 2 7 8 2 4 5
8 8 8 8 8 8 8 8 9 8 9 9 8 8 8 8 8 6 6 6 6 6 6 6 6 3 3 3 4 2 2 1 0 1 2 15 6 6
Wind_Direction
248 250 244 249 257 192 182 175 175 169 193 190 179 212 180 175 183 181 183 195 195 196 200 202 197 200 197 206 192 187 188 185 186 189 190 188 192 190
246 247 244 255 278 192 188 181 188 174 187 190 193 174 184 175 182 181 186 189 197 202 202 210 203 198 199 193 193 188 189 187 193 194 192 191 194 196
233 241 246 245 259 192 184 182 191 182 179 192 187 184 179 177 179 181 182 187 199 200 205 207 204 197 198 202 200 195 200 201 199 200 200 195 200 205
240 235 237 243 249 200 181 178 188 187 169 174 175 180 185 186 172 176 183 193 194 203 201 202 206 203 209 205 205 200 202 204 208 206 208 203 208 209
243 244 246 255 263 198 180 177 179 177 172 164 171 177 184 177 167 184 181 191 197 200 198 199 207 206 207 203 204 205 202 202 207 209 210 213 215 215
229 231 231 238 258 179 175 176 175 172 170 165 169 175 176 181 180 178 186 184 190 191 201 201 201 208 211 207 206 209 211 210 212 215 216 217 218 219
231 224 225 232 247 177 170 173 169 169 172 167 166 174 175 174 181 180 193 189 191 186 189 202 200 201 213 214 210 213 217 217 216 218 220 221 222 224
230 221 232 242 233 174 174 171 172 170 174 170 168 174 177 177 179 180 184 186 188 192 185 199 195 205 206 209 215 214 216 218 218 218 220 222 226 228
226 228 235 248 178 172 175 172 176 178 174 175 177 181 175 176 174 181 187 189 192 189 187 200 197 216 209 213 212 213 215 216 218 220 222 224 227 230
260 245 262 203 172 170 176 177 183 188 188 184 189 184 180 176 177 180 183 190 191 154 183 206 204 217 213 218 214 213 211 214 216 218 220 221 225 228
206 203 170 162 171 174 175 177 181 190 193 192 175 175 175 179 177 168 178 174 187 192 188 178 194 210 213 216 217 216 211 212 214 216 218 220 223 227
53 53 46 64 158 178 180 178 180 187 185 189 165 178 173 180 175 178 173 181 182 182 187 195 168 156 216 216 210 215 216 214 215 218 220 220 219 223
50 41 45 41 89 156 166 175 178 164 174 182 181 183 182 180 186 188 182 183 187 184 182 185 183 180 194 169 203 208 197 205 218 224 222 220 219 218
42 42 51 50 51 53 70 66 101 161 175 179 187 196 185 182 187 188 186 191 195 190 173 185 175 190 204 191 186 185 200 206 206 215 220 224 225 222
48 47 50 47 41 43 44 50 54 65 182 186 192 198 197 196 179 191 189 187 188 189 169 188 193 185 198 208 194 184 148 211 201 214 210 214 214 213
29 39 46 50 49 38 38 31 34 51 56 22 28 205 191 195 189 184 190 183 188 200 184 189 197 179 194 210 202 184 180 190 199 210 212 217 218 215
38 41 42 38 40 29 30 32 23 26 49 30 28 28 32 18 208 194 196 191 202 199 194 193 203 201 209 188 208 210 192 206 200 204 200 220 211 210
46 41 41 40 43 29 26 30 24 30 14 46 25 38 28 21 14 14 14 204 199 200 202 191 178 148 38 258 219 196 208 214 215 212 202 207 222 218
43 38 41 36 38 36 23 30 27 20 16 26 39 34 28 23 7 33 10 36 9 304 210 193 194 203 217 231 227 209 223 218 222 219 205 214 230 229
40 38 34 33 30 33 27 20 34 19 20 18 32 28 27 30 21 26 10 14 359 344 338 356 255 204 214 223 218 216 212 224 208 225 226 238 339 22
32 36 32 31 31 27 25 22 33 30 28 17 22 17 17 26 20 17 17 11 12 358 348 339 352 330 273 273 261 294 263 222 233 224 212 195 203 190
25 30 26 25 24 22 17 15 21 24 22 22 18 17 12 19 19 11 7 7 358 354 328 317 329 325 295 185 275 271 247 139 96 110 67 95 173 210
27 27 21 21 21 16 15 14 17 18 16 20 14 6 5 14 9 6 2 359 346 351 348 332 335 326 309 280 282 233 216 291 201 199 24 5 310 270